Probability
6 7 8 7 6 6 6 3 1 0 0 0 0 0 0 0 0 0 0 0 0 0 0 0 0 0 0 0 0 0 0 0 0 0 0 0 0 0 0 0 0 0 0
4 6 7 7 6 6 5 3 1 0 0 0 0 0 0 0 0 0 0 0 0 0 0 0 0 0 0 0 0 0 0 0 0 0 0 0 0 0 0 0 0 0 0
3 4 6 6 6 6 5 2 0 0 0 0 0 0 0 0 0 0 0 0 0 0 0 0 0 0 0 0 0 0 0 0 0 0 0 0 0 0 0 0 0 0 0
3 3 4 5 6 6 4 1 0 0 0 0 0 0 0 0 0 0 0 0 0 0 0 0 0 0 0 0 0 0 0 0 0 0 0 0 0 0 0 0 0 0 0
2 2 3 4 4 5 3 1 0 0 0 0 0 0 0 0 0 0 0 0 0 0 0 0 0 0 0 0 0 0 0 0 0 0 0 0 0 0 0 0 0 0 0
2 2 3 3 3 4 3 1 0 0 0 0 0 0 0 0 0 0 0 0 0 0 0 0 0 0 0 0 0 0 0 0 0 0 0 0 0 0 0 0 0 0 0
3 3 3 3 3 3 2 1 0 0 0 0 0 0 0 0 0 0 0 0 0 0 0 0 0 0 0 0 0 0 0 0 0 0 0 0 0 0 0 0 0 0 0
5 4 3 3 3 3 2 1 0 0 0 0 0 0 0 0 0 0 0 0 0 0 0 0 0 0 0 0 0 0 0 0 0 0 0 0 0 0 0 0 0 0 0
5 5 4 3 3 3 2 1 0 0 0 0 0 0 0 0 0 0 0 0 0 0 0 0 0 0 0 0 0 0 0 0 0 0 0 0 0 0 0 0 0 0 0
4 4 4 3 3 3 2 1 0 0 0 0 0 0 0 0 0 0 0 0 0 0 0 0 0 0 0 0 0 0 0 0 0 0 0 0 0 0 0 0 0 0 0
3 3 4 3 2 3 2 1 0 0 0 0 0 0 0 0 0 0 0 0 0 0 0 0 0 0 0 0 0 0 0 0 0 0 0 0 0 0 0 0 0 0 0
3 3 3 3 3 3 2 1 0 0 0 0 0 0 0 0 0 0 0 0 0 0 0 0 0 0 0 0 0 0 0 0 0 0 0 0 0 0 0 0 0 0 0
3 3 3 3 2 2 2 2 1 0 0 0 0 0 0 0 0 0 0 0 0 0 0 0 0 0 0 0 0 0 0 0 0 0 0 0 0 0 0 0 0 0 0
2 2 3 3 2 1 2 2 1 0 0 0 0 0 0 0 0 0 0 0 0 0 0 0 0 0 0 0 0 0 0 0 0 0 0 0 0 0 0 0 0 0 0
1 1 1 2 2 1 1 2 2 1 0 0 0 0 0 0 0 0 0 0 0 0 0 0 0 0 0 0 0 0 0 0 0 0 0 0 0 0 0 0 0 0 0
0 0 0 1 1 1 1 2 2 1 0 0 0 0 0 0 0 0 0 0 0 0 0 0 0 0 0 0 0 0 0 0 0 0 0 0 0 0 0 0 0 0 0
0 0 0 0 0 0 0 1 2 2 1 0 0 0 0 0 0 0 0 0 0 0 0 0 0 0 0 0 0 0 0 0 0 0 0 0 0 0 0 0 0 0 0
0 0 0 0 0 0 0 1 2 2 1 0 0 0 0 0 0 0 0 0 0 0 0 0 0 0 0 0 0 0 0 0 0 0 0 0 0 0 0 0 0 0 0
0 0 0 0 0 0 0 0 1 1 0 0 0 0 0 0 0 0 0 0 0 0 0 0 0 0 0 0 0 0 0 0 0 0 0 0 0 0 0 0 0 0 0
0 0 0 0 0 0 0 0 0 0 0 0 0 0 0 0 0 0 0 0 0 0 0 0 0 0 0 0 0 0 0 0 0 0 0 0 0 0 0 0 0 0 0
0 0 0 0 0 0 0 0 0 0 0 0 0 0 0 0 0 0 0 0 0 0 0 0 0 0 0 0 0 0 0 0 0 0 0 0 0 0 0 0 0 0 0
0 0 0 0 0 0 0 0 0 0 0 0 0 0 0 0 0 0 0 0 0 0 0 0 0 0 0 0 0 0 0 0 0 0 0 0 0 0 0 0 0 0 0
0 0 0 0 0 0 0 0 0 0 0 0 0 0 0 0 0 0 0 0 0 0 0 0 0 0 0 0 0 0 0 0 0 0 0 0 0 0 0 0 0 0 0
0 0 0 0 0 0 0 0 0 0 0 0 0 0 0 0 0 0 0 0 0 0 0 0 0 0 0 0 0 0 0 0 0 0 0 0 0 0 0 0 0 0 0
0 0 0 0 0 0 0 0 0 0 0 0 0 0 0 0 0 0 0 0 0 0 0 0 0 0 0 0 0 0 0 0 0 0 0 0 0 0 0 0 0 0 0
0 0 0 0 0 0 0 0 0 0 0 0 0 0 0 0 0 0 0 0 0 0 0 0 0 0 0 0 0 0 0 0 0 0 0 0 0 0 0 0 0 0 0
Wind_Speed
6 5 4 4 5 4 5 5 5 5 5 5 4 5 5 4 4 3 2 5 6 8 8 9 8 7 6 5 3 2 1 1 1 2 2 3 4 5 6 6 7 8 8
7 7 6 6 6 5 5 5 6 5 4 4 4 4 5 4 4 4 2 3 6 7 9 9 8 7 6 5 4 3 3 2 2 3 3 3 4 5 6 6 7 8 9
8 8 7 7 6 6 7 5 5 4 4 4 4 4 4 4 4 4 3 2 3 5 8 9 8 8 7 6 5 5 4 4 4 4 4 4 5 6 6 7 8 8 9
10 8 7 7 7 6 6 6 6 5 5 4 4 3 3 3 4 4 3 3 2 2 4 7 8 8 8 7 7 6 6 5 5 5 5 5 6 6 7 7 8 9 10
10 9 8 7 8 7 7 7 6 5 5 5 4 3 3 3 4 4 4 4 3 3 3 4 6 7 8 8 8 7 7 7 6 6 6 6 7 7 7 8 8 9 10
10 9 7 8 8 7 7 7 7 6 5 6 4 2 2 2 3 4 5 4 4 4 4 3 3 4 7 8 8 8 8 8 7 7 7 7 7 8 8 8 8 9 10
10 9 8 9 9 8 9 10 7 8 5 5 4 1 1 1 3 4 4 4 4 4 4 4 3 3 3 6 8 9 9 9 9 8 8 8 8 8 8 8 8 9 10
11 10 10 9 10 8 10 10 8 6 5 6 5 4 1 2 3 4 4 5 5 4 5 5 5 4 3 2 4 8 10 10 10 9 9 8 8 8 8 8 9 9 10
11 11 11 10 10 10 10 11 11 10 7 6 5 6 5 5 2 2 5 5 5 5 5 5 6 5 5 4 4 7 9 11 11 11 10 9 9 9 8 8 8 9 10
11 12 11 11 11 9 10 11 11 9 10 8 5 3 3 5 4 2 2 3 5 6 6 5 6 6 6 5 6 8 9 10 11 11 10 10 9 9 8 8 8 8 9
9 11 11 11 11 10 11 11 11 10 9 9 7 5 3 2 3 3 3 3 3 4 5 6 5 5 6 5 5 8 10 10 11 10 10 10 9 9 8 7 7 7 8
7 10 11 11 11 10 11 12 12 13 10 10 8 7 6 5 5 5 4 4 4 3 4 4 5 5 5 5 7 10 11 10 10 10 9 8 8 7 7 7 7 7 8
6 9 10 10 10 11 11 11 11 12 12 12 11 8 7 6 5 5 4 3 3 2 2 3 5 5 5 5 6 10 10 11 10 9 8 7 6 6 6 7 7 7 7
7 8 10 10 11 11 11 11 10 11 11 11 12 10 7 6 6 6 5 5 2 2 3 5 3 5 5 5 7 9 7 11 10 9 8 7 6 6 6 6 6 6 7
6 8 9 10 11 11 11 11 10 12 11 12 11 11 9 7 6 6 5 5 6 4 6 5 4 4 5 5 7 5 6 9 10 10 9 8 7 7 6 6 5 6 6
6 7 8 9 10 10 10 11 10 11 12 11 9 11 10 7 7 6 6 5 5 5 5 4 4 3 4 4 7 5 6 9 10 10 9 8 8 7 6 6 6 6 5
5 6 8 8 10 10 10 10 11 11 13 12 11 12 12 10 8 7 6 6 5 5 5 4 2 3 4 5 4 4 4 5 5 10 9 9 8 7 7 7 6 6 5
6 6 7 8 8 9 10 11 12 12 13 13 12 13 13 10 11 9 8 8 6 6 5 6 3 3 4 5 4 4 4 4 4 8 9 9 8 8 7 7 6 6 5
6 6 7 8 8 9 10 10 11 12 12 12 12 13 13 12 12 9 9 8 7 6 5 5 4 3 2 2 2 3 3 3 3 5 7 9 9 8 7 7 6 6 5
7 6 7 8 8 9 9 10 10 10 11 11 11 11 12 13 13 12 10 10 8 7 5 5 4 3 2 2 3 3 3 3 3 3 4 5 6 6 7 6 6 6 5
7 6 7 7 7 8 8 9 9 10 10 10 10 11 11 13 14 12 10 10 10 8 6 5 5 3 4 3 4 4 4 2 3 3 2 3 3 3 4 5 6 6 5
5 6 7 7 7 7 9 11 10 9 9 9 10 9 9 11 14 16 16 15 14 11 9 7 6 7 7 6 4 4 4 3 4 3 3 3 3 3 3 3 5 5 5
5 5 6 7 8 9 10 11 11 8 9 9 10 9 8 8 12 10 12 14 14 15 14 10 9 9 8 8 7 6 6 5 4 4 3 3 2 3 3 3 6 6 5
5 5 6 7 7 8 10 11 11 9 9 9 10 10 10 10 10 11 9 9 9 10 11 10 9 8 7 7 8 7 6 4 2 2 3 3 2 3 2 2 6 6 5
5 5 5 6 7 7 10 12 11 7 7 8 9 9 10 10 13 14 11 9 7 6 7 9 9 8 9 11 9 5 5 4 3 3 3 3 2 1 1 2 3 5 4
5 6 6 6 7 7 9 11 12 7 7 6 6 8 12 11 14 15 11 10 10 8 6 6 6 6 6 9 12 9 7 5 3 3 4 4 2 2 1 1 1 1 2
Wind_Direction
175 173 171 169 166 161 161 158 154 154 155 156 158 160 167 172 173 177 206 208 200 197 194 186 180 181 182 182 185 191 210 238 316 339 345 344 346 343 340 340 342 340 339
179 177 177 177 176 171 168 167 164 164 166 163 166 171 176 177 179 181 194 212 208 206 204 197 193 193 195 199 205 216 229 252 277 297 311 320 324 326 326 329 330 332 332
183 182 181 184 183 175 167 161 159 157 163 166 171 176 179 182 182 189 191 197 210 214 210 210 206 206 211 215 219 227 237 250 264 281 293 303 309 311 316 319 321 325 326
187 185 187 190 182 174 170 167 168 167 174 173 175 181 182 182 189 194 192 195 197 211 217 218 218 217 221 226 231 236 243 251 260 271 281 290 297 302 307 312 316 319 322
193 190 192 190 180 177 178 177 177 172 176 178 179 181 185 190 195 195 197 200 198 195 203 219 223 227 232 235 238 243 249 254 258 266 276 284 291 296 302 307 310 314 318
199 194 192 189 181 182 183 179 177 175 176 172 167 171 196 204 198 202 206 204 203 201 200 204 216 233 235 238 242 248 254 256 258 263 270 277 285 291 297 303 307 312 315
200 199 196 189 186 190 191 182 176 175 176 154 131 131 300 229 217 218 209 203 209 207 200 203 202 204 229 238 243 248 255 258 261 265 268 273 279 286 293 301 305 308 311
203 202 201 195 191 189 190 186 176 174 175 170 154 141 197 270 243 221 209 210 214 207 209 209 203 204 206 215 241 247 255 259 264 267 268 270 275 281 288 296 301 305 309
206 202 202 199 194 191 194 192 184 180 180 188 178 161 171 211 225 232 216 213 209 210 215 210 209 210 209 211 225 243 248 255 262 268 270 271 273 276 281 290 296 302 307
210 204 200 200 197 195 194 196 192 187 179 186 192 198 178 159 167 213 247 221 213 216 216 214 211 211 209 211 221 230 240 248 256 263 268 271 272 276 281 287 293 300 306
212 206 200 200 200 197 195 193 192 191 191 190 186 178 176 173 169 171 220 225 226 222 214 212 211 212 210 210 216 227 234 241 248 256 263 268 273 275 280 287 293 298 304
214 208 203 203 204 201 199 197 196 194 196 197 195 188 178 175 183 181 203 218 224 225 212 209 210 213 210 209 218 223 226 231 238 247 253 262 266 272 281 288 290 292 300
222 211 207 205 206 205 201 197 198 199 198 197 199 202 200 197 172 170 178 200 216 236 222 221 213 208 208 205 217 219 224 226 230 235 238 244 253 262 274 283 289 291 297
225 211 207 209 208 206 202 199 200 201 199 201 204 202 203 202 188 184 178 172 195 240 235 233 210 208 208 205 215 210 218 222 225 226 228 232 237 247 258 270 284 291 297
229 216 210 209 208 207 204 201 205 203 201 202 203 203 205 204 196 194 185 179 180 213 238 223 213 209 206 202 207 200 208 218 220 222 223 226 231 239 248 257 269 281 291
229 224 217 213 210 209 207 204 209 205 202 204 201 202 205 203 198 194 191 191 190 195 227 220 209 200 196 200 203 197 208 211 218 220 221 223 227 234 240 247 256 266 276
227 233 225 216 213 210 208 209 210 207 205 204 202 203 207 199 199 196 190 189 195 189 216 239 207 192 190 195 198 198 202 205 216 220 222 223 225 229 234 239 248 257 266
230 232 230 221 216 212 210 211 210 208 209 208 206 205 207 199 201 199 193 195 196 194 197 223 221 196 202 198 192 197 203 207 212 219 221 222 223 226 229 232 240 247 256
237 235 232 223 217 214 211 210 211 210 210 209 206 205 204 198 202 201 196 196 195 195 196 203 219 202 196 181 182 202 200 211 213 219 223 224 225 224 225 228 236 237 246
237 238 238 231 223 216 211 212 208 211 210 209 207 204 203 201 202 200 199 198 191 190 191 196 210 203 193 178 170 197 213 212 217 210 223 221 219 218 223 225 228 229 238
242 237 239 237 233 218 211 210 210 211 209 209 207 205 205 204 203 199 198 194 188 191 190 197 204 201 200 184 198 192 208 203 220 204 214 219 208 213 219 226 225 226 231
256 242 237 236 239 230 215 210 210 210 208 207 208 206 205 203 202 202 200 195 191 193 196 198 205 207 211 204 190 184 183 181 226 201 189 220 191 213 215 209 223 222 227
267 256 243 237 240 235 215 208 208 209 209 208 205 203 203 205 200 200 199 196 199 199 197 197 205 209 203 198 184 186 194 195 209 179 166 209 194 220 215 217 220 218 223
275 267 260 244 243 237 215 209 206 209 212 209 205 202 201 200 198 191 192 199 205 206 203 203 208 208 202 191 189 190 189 176 124 158 163 194 200 217 212 216 220 217 221
278 271 267 257 244 241 219 210 202 210 214 211 205 203 200 200 196 186 188 194 199 208 204 199 200 197 190 184 173 155 159 163 192 197 183 176 182 200 225 225 224 214 218
275 275 269 261 248 247 228 215 205 208 210 208 204 204 200 200 194 187 190 190 197 201 185 187 192 190 190 184 180 184 182 179 170 191 184 169 163 149 220 242 219 216 220